This is the latest recevied weather packets stored in our database for station/object K7AEL. If no packets are shown the sender has not sent any weather packets the latest 10 day(s).
| Time | Temp. | Humidity | Pressure | Rain* | Wind** | Luminosity | Snow |
|---|---|---|---|---|---|---|---|
| 1777674016 | 30° C | 21% | 1011.3 hPa | 0 mm | - | 489 W/m² | - |
| 1777673711 | 30° C | 21% | 1011.4 hPa | 0 mm | - | 502 W/m² | - |
| 1777673409 | 29.44° C | 21% | 1011.3 hPa | 0 mm | - | 514 W/m² | - |
| 1777673101 | 30° C | 21% | 1011.4 hPa | 0 mm | - | 525 W/m² | - |
| 1777672797 | 30.56° C | 20% | 1011.7 hPa | 0 mm | - | 535 W/m² | - |
| 1777672494 | 30° C | 21% | 1011.8 hPa | 0 mm | - | 551 W/m² | - |
| 1777672189 | 30.56° C | 21% | 1011.8 hPa | 0 mm | - | 564 W/m² | - |
| 1777671885 | 30.56° C | 21% | 1012 hPa | 0 mm | - | 572 W/m² | - |
| 1777671580 | 30° C | 21% | 1011.9 hPa | 0 mm | - | 582 W/m² | - |
| 1777671278 | 28.89° C | 21% | 1012 hPa | 0 mm | - | 592 W/m² | - |
| 1777670973 | 29.44° C | 21% | 1012 hPa | 0 mm | - | 605 W/m² | - |
| 1777670670 | 30° C | 21% | 1012.2 hPa | 0 mm | - | 617 W/m² | - |
| 1777670367 | 30.56° C | 21% | 1012.1 hPa | 0 mm | - | 630 W/m² | - |
| 1777670065 | 30.56° C | 20% | 1012.4 hPa | 0 mm | - | 633 W/m² | - |
| 1777669762 | 29.44° C | 21% | 1012.4 hPa | 0 mm | - | 638 W/m² | - |
| 1777669459 | 29.44° C | 22% | 1012.3 hPa | 0 mm | - | 648 W/m² | - |
| 1777669155 | 28.33° C | 22% | 1012.3 hPa | 0 mm | - | 657 W/m² | - |
| 1777668852 | 28.89° C | 22% | 1012.6 hPa | 0 mm | - | 667 W/m² | - |
| 1777668549 | 28.89° C | 22% | 1012.6 hPa | 0 mm | - | 675 W/m² | - |
| 1777668245 | 28.89° C | 22% | 1012.7 hPa | 0 mm | - | 679 W/m² | - |
| 1777667941 | 29.44° C | 21% | 1012.7 hPa | 0 mm | - | 689 W/m² | - |
| 1777667639 | 29.44° C | 21% | 1012.7 hPa | 0 mm | - | 695 W/m² | - |
| 1777667336 | 28.89° C | 23% | 1012.8 hPa | 0 mm | - | 695 W/m² | - |
| 1777667033 | 28.89° C | 22% | 1012.8 hPa | 0 mm | - | 703 W/m² | - |
| 1777666729 | 28.89° C | 22% | 1012.9 hPa | 0 mm | - | 710 W/m² | - |
* Rain latest hour (hover to see other rain measurements)
** Current wind speed in m/s (hover to see current wind gust speed)